FENGYUN 1C DEB, 31161

Orbit data source: Space-Track

FENGYUN 1C DEB, 31161 is space debris in SSO originally from a launch on Mon, 10 May 1999 UTC launched from the Taiyaun Space Center, China (TSC). Fengyun 1C debris stems from the Chinese weather satellite Fengyun-1C, which was intentionally destroyed by a Chinese anti-satellite missile in 2007. This event dramatically increased the amount of space debris, with thousands of trackable fragments posing hazards to satellites and human spaceflight. The Fengyun 1C debris cloud has become a focal point in discussions about space sustainability and the need for international regulations to prevent the creation of new debris.

Loading next visibility...
Identifier
31161, 1999-025BHP
Orbit
SSO
Country
Flag of CNCN / PRC
Related business
Manufacturer
Unknown
Mission
Spacecraft
Bus & Motor
Unknown
Mass
Unknown
Launch date (UTC)
1999-05-10 (27 years ago)
Launch vehicle
Unknown
Launch site
Taiyaun Space Center, China (TSC)
Object type
Payload
Rocket body
Debris
Shape & HBR
Unknown shape, 0.1 m
Radar Cross Section
Small (<0.1 m²)

Expand to show TLE details & history
Last TLE update: 2 days ago

TLE from 2 days ago
0 FENGYUN 1C DEB
1 31161U 99025BHP 26254.49111519  .00000346  00000-0  21816-3 0  9991
2 31161  98.7321 273.0413 0067237 298.3320  61.1080 14.09529690999442
Epoch: 2026-09-11T11:47Z
TLE epoch observation values (Epoch: 2026-09-11T11:47:12.352Z)
Latitude
Longitude
105.72612°
Altitude
840.611 km
Speed
7.444 km/s
True Right ascension
18h 12m 09s
True Declination
0° 00' 00"
Sunlit
Object was in daylight at epoch
Visualization orbit readout
Latitude
Unknown
Longitude
Unknown
Altitude
Unknown
Speed
Unknown
Apparent Right ascension
Unknown
Apparent Declination
Unknown
Sunlit
N/A
Visualization observer readout
Local Sidereal Time
01:49:52
Azimuth
Unknown
Elevation
Unknown
Doppler factor
Unknown
Orbital elements
Apogee altitude
906.81 km
Perigee altitude
809.5 km
Semi-major axis
7,236.292 km
Eccentricity
0.00672
Inclination
98.7321°
RAAN
273.0413°
Arg. of periapsis
298.332°
True anomaly
61.78531°
Mean anomaly
61.108°
Eccentric anomaly
61.44638°
Mean motion
3.52589 °/min
Orbital period
102.1 mins
BSTAR
0.00021816
Loading maneuver chart data...
Computing Atmospheric mass density...
Loading historical data...
Loading historical data...
Loading historical data...
Loading historical data...
Loading historical data...
Loading historical data...
Loading historical data...

Documentation

Showing up to 5 results
|